Weather History for Scottsbluff, NE

Change the Weather History Date:

Monday, October 15, 2012

  Actual Average Record
Temperature  
Mean Temperature 58 °F 49 °F  
Max Temperature 81 °F 64 °F 87 °F (1958)
Min Temperature 35 °F 33 °F 20 °F (1966)
Degree Days  
Heating Degree Days 7 16  
Month to date heating degree days 249 204  
Since 1 July heating degree days 325 383  
Cooling Degree Days 0 0  
Month to date cooling degree days 0 0  
Year to date cooling degree days 1208 723  
Growing Degree Days 8 (Base 50)    
Moisture  
Dew Point 32 °F    
Average Humidity 51    
Maximum Humidity 89    
Minimum Humidity 12    
Precipitation  
Precipitation 0.00 in 0.04 in 0.57 in (1915)
Month to date precipitation 0.37 0.60  
Year to date precipitation 6.01 14.08  
Snow  
Snow 0.00 in 0.10 in 1.60 in (1969)
Month to date snowfall 4.7 0.9  
Since 1 July snowfall 4.7 1.4  
Snow Depth 0.00 in    
Sea Level Pressure  
Sea Level Pressure 29.85 in    
Wind  
Wind Speed 8 mph (WNW)    
Max Wind Speed 29 mph    
Max Gust Speed 33 mph    
Visibility 10 miles    
Events      
T = Trace of Precipitation, MM = Missing Value Source: NWS Daily Summary

Daily Weather History Graph

Daily Weather History Graph

Search for Another Location

Airport:

Trip Planner

Search our weather history database for the weather conditions in past years. The results will help you decide how hot, cold, wet, or windy it might be!

Date:

Astronomy

Oct. 15, 2012 Rise Set
Actual Time 7:07 AM MDT 6:12 PM MDT
Civil Twilight 6:39 AM MDT 6:40 PM MDT
Nautical Twilight 6:06 AM MDT 7:12 PM MDT
Astronomical Twilight 5:34 AM MDT 7:44 PM MDT
Moon 7:21 AM MDT (10/15) 6:11 PM MDT (10/15)
Length of Visible Light 12h 00m
Length of Day
11h 04m
Waxing Crescent, 0% of the Moon is Illuminated
Oct 15
Waxing Crescent
Oct 21
First Quarter
Oct 29
Full
Nov 6
Last Quarter
Nov 13
New

Hourly Weather History & Observations

Time (MDT) Temp. Windchill Dew Point Humidity Pressure Visibility Wind Dir Wind Speed Gust Speed Precip Events Conditions
12:53 AM 41.0 °F - 33.1 °F 73% 30.02 in 10.0 mi Calm Calm - N/A   Clear
1:53 AM 41.0 °F - 34.0 °F 76% 30.01 in 10.0 mi Calm Calm - N/A   Clear
2:53 AM 39.9 °F 37.8 °F 33.1 °F 77% 30.00 in 10.0 mi NE 3.5 mph - N/A   Clear
3:53 AM 39.0 °F - 33.1 °F 79% 29.97 in 10.0 mi Calm Calm - N/A   Clear
4:53 AM 37.0 °F - 33.1 °F 86% 29.97 in 10.0 mi Calm Calm - N/A   Clear
5:53 AM 37.4 °F - 32.0 °F 81% 30.00 in 10.0 mi Calm Calm - N/A   Clear
6:53 AM 36.0 °F - 32.0 °F 86% 29.98 in 10.0 mi Calm Calm - N/A   Clear
7:53 AM 37.0 °F - 33.1 °F 86% 30.00 in 10.0 mi Calm Calm - N/A   Clear
8:53 AM 51.1 °F - 39.0 °F 63% 29.96 in 10.0 mi Calm Calm - N/A   Clear
9:53 AM 59.0 °F - 37.0 °F 44% 29.94 in 10.0 mi Calm Calm - N/A   Clear
10:53 AM 68.0 °F - 36.0 °F 31% 29.89 in 10.0 mi Calm Calm - N/A   Clear
11:53 AM 75.9 °F - 30.9 °F 19% 29.84 in 10.0 mi West 17.3 mph 23.0 mph N/A   Clear
12:53 PM 78.1 °F - 28.0 °F 16% 29.80 in 10.0 mi West 19.6 mph 24.2 mph N/A   Clear
1:53 PM 80.1 °F - 28.0 °F 15% 29.77 in 10.0 mi West 18.4 mph - N/A   Clear
2:53 PM 80.1 °F - 23.0 °F 12% 29.75 in 10.0 mi West 21.9 mph 29.9 mph N/A   Clear
3:53 PM 78.1 °F - 25.0 °F 14% 29.74 in 10.0 mi West 23.0 mph 33.4 mph N/A   Clear
4:53 PM 73.9 °F - 28.0 °F 18% 29.74 in 10.0 mi WNW 17.3 mph 23.0 mph N/A   Clear
5:53 PM 69.1 °F - 30.0 °F 23% 29.75 in 10.0 mi WNW 11.5 mph - N/A   Clear
6:53 PM 71.1 °F - 28.9 °F 21% 29.75 in 10.0 mi WNW 12.7 mph - N/A   Clear
7:53 PM 66.9 °F - 30.9 °F 26% 29.77 in 10.0 mi WNW 10.4 mph - N/A   Clear
8:53 PM 64.9 °F - 30.9 °F 28% 29.74 in 10.0 mi West 5.8 mph - N/A   Clear
9:53 PM 63.0 °F - 32.0 °F 31% 29.74 in 10.0 mi WNW 9.2 mph - N/A   Partly Cloudy
10:53 PM 54.0 °F - 34.0 °F 47% 29.75 in 10.0 mi North 8.1 mph - N/A   Partly Cloudy
11:53 PM 53.1 °F - 35.1 °F 50% 29.74 in 10.0 mi WNW 4.6 mph - N/A   Mostly Cloudy